Year,Month,Day,Hour,Minute,Value (Times are PST for windspeed in km/hr)
2012,06,27,00,00,2.20
2012,06,27,00,01,5.90
2012,06,27,00,02,4.30
2012,06,27,00,03,4.50
2012,06,27,00,04,4.00
2012,06,27,00,05,5.20
2012,06,27,00,06,4.60
2012,06,27,00,07,3.40
2012,06,27,00,08,2.40
2012,06,27,00,09,2.70
2012,06,27,00,10,2.90
2012,06,27,00,11,2.40
2012,06,27,00,12,2.40
2012,06,27,00,13,3.30
2012,06,27,00,14,1.80
2012,06,27,00,15,3.00
2012,06,27,00,16,4.40
2012,06,27,00,17,2.80
2012,06,27,00,18,3.40
2012,06,27,00,19,2.60
2012,06,27,00,20,1.70
2012,06,27,00,21,2.20
2012,06,27,00,22,3.90
2012,06,27,00,23,4.80
2012,06,27,00,24,3.10
2012,06,27,00,25,4.10
2012,06,27,00,26,4.20
2012,06,27,00,27,2.30
2012,06,27,00,28,3.90
2012,06,27,00,29,4.90
2012,06,27,00,30,4.70
2012,06,27,00,31,4.70
2012,06,27,00,32,4.90
2012,06,27,00,33,4.60
2012,06,27,00,34,4.10
2012,06,27,00,35,5.60
2012,06,27,00,36,2.90
2012,06,27,00,37,2.30
2012,06,27,00,38,2.80
2012,06,27,00,39,2.60
2012,06,27,00,40,2.80
2012,06,27,00,41,3.00
2012,06,27,00,42,3.80
2012,06,27,00,43,4.70
2012,06,27,00,44,4.30
2012,06,27,00,45,4.30
2012,06,27,00,46,4.60
2012,06,27,00,47,4.70
2012,06,27,00,48,4.80
2012,06,27,00,49,3.50
2012,06,27,00,50,4.70
2012,06,27,00,51,4.40
2012,06,27,00,52,4.90
2012,06,27,00,53,3.90
2012,06,27,00,54,3.80
2012,06,27,00,55,3.20
2012,06,27,00,56,3.70
2012,06,27,00,57,4.30
2012,06,27,00,58,4.30
2012,06,27,00,59,4.00
2012,06,27,01,00,4.70
2012,06,27,01,01,4.30
2012,06,27,01,02,5.80
2012,06,27,01,03,4.10
2012,06,27,01,04,3.20
2012,06,27,01,05,4.90
2012,06,27,01,06,4.70
2012,06,27,01,07,5.00
2012,06,27,01,08,4.00
2012,06,27,01,09,3.60
2012,06,27,01,10,3.40
2012,06,27,01,11,2.80
2012,06,27,01,12,2.90
2012,06,27,01,13,3.50
2012,06,27,01,14,3.00
2012,06,27,01,15,3.00
2012,06,27,01,16,2.80
2012,06,27,01,17,3.00
2012,06,27,01,18,3.50
2012,06,27,01,19,4.40
2012,06,27,01,20,4.60
2012,06,27,01,21,4.70
2012,06,27,01,22,3.50
2012,06,27,01,23,3.70
2012,06,27,01,24,4.40
2012,06,27,01,25,4.10
2012,06,27,01,26,3.90
2012,06,27,01,27,3.40
2012,06,27,01,28,3.30
2012,06,27,01,29,3.00
2012,06,27,01,30,2.80
2012,06,27,01,31,3.20
2012,06,27,01,32,3.10
2012,06,27,01,33,3.90
2012,06,27,01,34,3.40
2012,06,27,01,35,4.60
2012,06,27,01,36,2.80
2012,06,27,01,37,2.30
2012,06,27,01,38,3.20
2012,06,27,01,39,2.20
2012,06,27,01,40,1.90
2012,06,27,01,41,1.80
2012,06,27,01,42,2.50
2012,06,27,01,43,3.00
2012,06,27,01,44,5.10
2012,06,27,01,45,5.30
2012,06,27,01,46,5.10
2012,06,27,01,47,4.60
2012,06,27,01,48,5.10
2012,06,27,01,49,3.80
2012,06,27,01,50,4.40
2012,06,27,01,51,4.00
2012,06,27,01,52,3.90
2012,06,27,01,53,4.20
2012,06,27,01,54,4.30
2012,06,27,01,55,4.40
2012,06,27,01,56,4.80
2012,06,27,01,57,5.40
2012,06,27,01,58,4.70
2012,06,27,01,59,3.40
2012,06,27,02,00,3.80
2012,06,27,02,01,2.90
2012,06,27,02,02,4.70
2012,06,27,02,03,5.50
2012,06,27,02,04,5.40
2012,06,27,02,05,4.70
2012,06,27,02,06,4.30
2012,06,27,02,07,5.60
2012,06,27,02,08,6.20
2012,06,27,02,09,5.30
2012,06,27,02,10,4.20
2012,06,27,02,11,2.70
2012,06,27,02,12,2.20
2012,06,27,02,13,1.60
2012,06,27,02,14,3.90
2012,06,27,02,15,4.70
2012,06,27,02,16,4.90
2012,06,27,02,17,4.80
2012,06,27,02,18,3.40
2012,06,27,02,19,3.50
2012,06,27,02,20,3.30
2012,06,27,02,21,3.30
2012,06,27,02,22,3.00
2012,06,27,02,23,3.00
2012,06,27,02,24,2.80
2012,06,27,02,25,2.30
2012,06,27,02,26,3.10
2012,06,27,02,27,2.30
2012,06,27,02,28,1.00
2012,06,27,02,29,0.00
2012,06,27,02,30,0.00
2012,06,27,02,31,0.00
2012,06,27,02,32,0.00
2012,06,27,02,33,0.00
2012,06,27,02,34,2.10
2012,06,27,02,35,2.50
2012,06,27,02,36,0.30
2012,06,27,02,37,1.40
2012,06,27,02,38,2.40
2012,06,27,02,39,1.80
2012,06,27,02,40,1.20
2012,06,27,02,41,1.60
2012,06,27,02,42,1.10
2012,06,27,02,43,0.90
2012,06,27,02,44,2.20
2012,06,27,02,45,1.40
2012,06,27,02,46,0.50
2012,06,27,02,47,1.00
2012,06,27,02,48,1.70
2012,06,27,02,49,1.80
2012,06,27,02,50,1.50
2012,06,27,02,51,0.90
2012,06,27,02,52,0.80
2012,06,27,02,53,1.60
2012,06,27,02,54,2.30
2012,06,27,02,55,2.00
2012,06,27,02,56,0.60
2012,06,27,02,57,0.10
2012,06,27,02,58,1.50
2012,06,27,02,59,1.20
2012,06,27,03,00,0.00
2012,06,27,03,01,0.60
2012,06,27,03,02,0.00
2012,06,27,03,03,1.40
2012,06,27,03,04,0.80
2012,06,27,03,05,0.30
2012,06,27,03,06,0.00
2012,06,27,03,07,0.20
2012,06,27,03,08,0.90
2012,06,27,03,09,2.30
2012,06,27,03,10,0.70
2012,06,27,03,11,0.00
2012,06,27,03,12,0.00
2012,06,27,03,13,0.20
2012,06,27,03,14,0.90
2012,06,27,03,15,0.50
2012,06,27,03,16,1.30
2012,06,27,03,17,2.00
2012,06,27,03,18,1.80
2012,06,27,03,19,1.30
2012,06,27,03,20,1.90
2012,06,27,03,21,3.30
2012,06,27,03,22,1.50
2012,06,27,03,23,1.80
2012,06,27,03,24,1.50
2012,06,27,03,25,0.70
2012,06,27,03,26,0.80
2012,06,27,03,27,2.80
2012,06,27,03,28,3.00
2012,06,27,03,29,3.00
2012,06,27,03,30,1.10
2012,06,27,03,31,0.80
2012,06,27,03,32,2.90
2012,06,27,03,33,1.50
2012,06,27,03,34,1.90
2012,06,27,03,35,3.00
2012,06,27,03,36,1.50
2012,06,27,03,37,2.60
2012,06,27,03,38,1.40
2012,06,27,03,39,1.80
2012,06,27,03,40,1.80
2012,06,27,03,41,1.50
2012,06,27,03,42,1.80
2012,06,27,03,43,1.60
2012,06,27,03,44,0.70
2012,06,27,03,45,1.10
2012,06,27,03,46,1.50
2012,06,27,03,47,1.40
2012,06,27,03,48,1.40
2012,06,27,03,49,1.50
2012,06,27,03,50,2.00
2012,06,27,03,51,2.30
2012,06,27,03,52,1.40
2012,06,27,03,53,1.60
2012,06,27,03,54,0.60
2012,06,27,03,55,0.10
2012,06,27,03,56,0.20
2012,06,27,03,57,1.30
2012,06,27,03,58,1.40
2012,06,27,03,59,1.20
2012,06,27,04,00,0.80
2012,06,27,04,01,0.60
2012,06,27,04,02,0.00
2012,06,27,04,03,0.00
2012,06,27,04,04,1.10
2012,06,27,04,05,2.00
2012,06,27,04,06,2.00
2012,06,27,04,07,1.50
2012,06,27,04,08,0.50
2012,06,27,04,09,0.40
2012,06,27,04,10,1.10
2012,06,27,04,11,1.40
2012,06,27,04,12,0.30
2012,06,27,04,13,0.00
2012,06,27,04,14,0.40
2012,06,27,04,15,1.00
2012,06,27,04,16,0.60
2012,06,27,04,17,0.20
2012,06,27,04,18,1.20
2012,06,27,04,19,1.50
2012,06,27,04,20,1.60
2012,06,27,04,21,2.40
2012,06,27,04,22,2.30
2012,06,27,04,23,1.80
2012,06,27,04,24,1.50
2012,06,27,04,25,0.40
2012,06,27,04,26,0.90
2012,06,27,04,27,1.60
2012,06,27,04,28,1.70
2012,06,27,04,29,1.90
2012,06,27,04,30,1.80
2012,06,27,04,31,0.60
2012,06,27,04,32,0.80
2012,06,27,04,33,0.10
2012,06,27,04,34,1.00
2012,06,27,04,35,1.60
2012,06,27,04,36,1.40
2012,06,27,04,37,0.90
2012,06,27,04,38,1.40
2012,06,27,04,39,0.90
2012,06,27,04,40,1.50
2012,06,27,04,41,2.00
2012,06,27,04,42,1.30
2012,06,27,04,43,1.60
2012,06,27,04,44,1.60
2012,06,27,04,45,1.30
2012,06,27,04,46,0.00
2012,06,27,04,47,0.20
2012,06,27,04,48,0.20
2012,06,27,04,49,0.60
2012,06,27,04,50,0.70
2012,06,27,04,51,2.10
2012,06,27,04,52,1.30
2012,06,27,04,53,1.50
2012,06,27,04,54,1.50
2012,06,27,04,55,1.50
2012,06,27,04,56,1.60
2012,06,27,04,57,1.90
2012,06,27,04,58,1.60
2012,06,27,04,59,1.20
2012,06,27,05,00,1.40
2012,06,27,05,01,1.60
2012,06,27,05,02,1.20
2012,06,27,05,03,0.90
2012,06,27,05,04,1.00
2012,06,27,05,05,0.80
2012,06,27,05,06,0.30
2012,06,27,05,07,0.30
2012,06,27,05,08,0.80
2012,06,27,05,09,1.50
2012,06,27,05,10,1.20
2012,06,27,05,11,1.60
2012,06,27,05,12,1.10
2012,06,27,05,13,1.10
2012,06,27,05,14,1.00
2012,06,27,05,15,0.30
2012,06,27,05,16,1.40
2012,06,27,05,17,1.50
2012,06,27,05,18,1.20
2012,06,27,05,19,0.50
2012,06,27,05,20,0.20
2012,06,27,05,21,0.60
2012,06,27,05,22,0.40
2012,06,27,05,23,0.60
2012,06,27,05,24,0.40
2012,06,27,05,25,0.40
2012,06,27,05,26,0.30
2012,06,27,05,27,0.10
2012,06,27,05,28,0.10
2012,06,27,05,29,0.10
2012,06,27,05,30,0.00
2012,06,27,05,31,0.00
2012,06,27,05,32,0.00
2012,06,27,05,33,0.00
2012,06,27,05,34,0.20
2012,06,27,05,35,0.00
2012,06,27,05,36,0.20
2012,06,27,05,37,3.30
2012,06,27,05,38,2.40
2012,06,27,05,39,0.20
2012,06,27,05,40,0.00
2012,06,27,05,41,0.00
2012,06,27,05,42,0.00
2012,06,27,05,43,0.00
2012,06,27,05,44,0.00
2012,06,27,05,45,0.00
2012,06,27,05,46,0.00
2012,06,27,05,47,0.00
2012,06,27,05,48,0.00
2012,06,27,05,49,0.00
2012,06,27,05,50,0.00
2012,06,27,05,51,0.30
2012,06,27,05,52,1.60
2012,06,27,05,53,1.00
2012,06,27,05,54,0.00
2012,06,27,05,55,0.00
2012,06,27,05,56,0.00
2012,06,27,05,57,0.70
2012,06,27,05,58,0.80
2012,06,27,05,59,0.00
2012,06,27,06,00,0.00
2012,06,27,06,01,0.00
2012,06,27,06,02,0.00
2012,06,27,06,03,0.20
2012,06,27,06,04,0.00
2012,06,27,06,05,0.00
2012,06,27,06,06,0.00
2012,06,27,06,07,0.00
2012,06,27,06,08,0.40
2012,06,27,06,09,1.40
2012,06,27,06,10,1.00
2012,06,27,06,11,0.30
2012,06,27,06,12,0.00
2012,06,27,06,13,0.10
2012,06,27,06,14,0.00
2012,06,27,06,15,0.00
2012,06,27,06,16,0.00
2012,06,27,06,17,0.00
2012,06,27,06,18,0.00
2012,06,27,06,19,0.00
2012,06,27,06,20,0.00
2012,06,27,06,21,0.10
2012,06,27,06,22,0.20
2012,06,27,06,23,1.00
2012,06,27,06,24,1.90
2012,06,27,06,25,3.70
2012,06,27,06,26,3.00
2012,06,27,06,27,3.00
2012,06,27,06,28,3.20
2012,06,27,06,29,2.40
2012,06,27,06,30,1.10
2012,06,27,06,31,0.20
2012,06,27,06,32,1.50
2012,06,27,06,33,2.10
2012,06,27,06,34,0.40
2012,06,27,06,35,0.00
2012,06,27,06,36,0.00
2012,06,27,06,37,0.00
2012,06,27,06,38,0.00
2012,06,27,06,39,0.00
2012,06,27,06,40,0.10
2012,06,27,06,41,0.80
2012,06,27,06,42,1.30
2012,06,27,06,43,0.20
2012,06,27,06,44,0.20
2012,06,27,06,45,0.20
2012,06,27,06,46,0.20
2012,06,27,06,47,0.40
2012,06,27,06,48,0.90
2012,06,27,06,49,2.20
2012,06,27,06,50,1.80
2012,06,27,06,51,1.90
2012,06,27,06,52,1.70
2012,06,27,06,53,0.80
2012,06,27,06,54,1.40
2012,06,27,06,55,3.00
2012,06,27,06,56,3.50
2012,06,27,06,57,4.70
2012,06,27,06,58,6.40
2012,06,27,06,59,5.20
2012,06,27,07,00,4.30
2012,06,27,07,01,3.90
2012,06,27,07,02,5.00
2012,06,27,07,03,4.60
2012,06,27,07,04,5.00
2012,06,27,07,05,6.10
2012,06,27,07,06,5.30
2012,06,27,07,07,3.00
2012,06,27,07,08,0.30
2012,06,27,07,09,1.60
2012,06,27,07,10,1.70
2012,06,27,07,11,2.10
2012,06,27,07,12,1.40
2012,06,27,07,13,0.10
2012,06,27,07,14,0.00
2012,06,27,07,15,0.00
2012,06,27,07,16,0.60
2012,06,27,07,17,1.60
2012,06,27,07,18,0.60
2012,06,27,07,19,0.50
2012,06,27,07,20,0.00
2012,06,27,07,21,0.10
2012,06,27,07,22,1.50
2012,06,27,07,23,0.10
2012,06,27,07,24,0.00
2012,06,27,07,25,0.30
2012,06,27,07,26,0.10
2012,06,27,07,27,1.10
2012,06,27,07,28,0.40
2012,06,27,07,29,0.00
2012,06,27,07,30,1.90
2012,06,27,07,31,2.20
2012,06,27,07,32,1.70
2012,06,27,07,33,1.00
2012,06,27,07,34,1.00
2012,06,27,07,35,0.80
2012,06,27,07,36,1.20
2012,06,27,07,37,2.50
2012,06,27,07,38,2.60
2012,06,27,07,39,1.80
2012,06,27,07,40,3.30
2012,06,27,07,41,4.30
2012,06,27,07,42,7.60
2012,06,27,07,43,8.60
2012,06,27,07,44,5.10
2012,06,27,07,45,4.30
2012,06,27,07,46,3.70
2012,06,27,07,47,6.00
2012,06,27,07,48,6.30
2012,06,27,07,49,3.40
2012,06,27,07,50,4.40
2012,06,27,07,51,3.80
2012,06,27,07,52,4.30
2012,06,27,07,53,3.30
2012,06,27,07,54,3.50
2012,06,27,07,55,4.70
2012,06,27,07,56,4.80
2012,06,27,07,57,4.80
2012,06,27,07,58,4.80
2012,06,27,07,59,4.80
2012,06,27,08,00,3.00
2012,06,27,08,01,2.40
2012,06,27,08,02,1.70
2012,06,27,08,03,3.10
2012,06,27,08,04,5.10
2012,06,27,08,05,7.30
2012,06,27,08,06,5.40
2012,06,27,08,07,4.60
2012,06,27,08,08,6.20
2012,06,27,08,09,5.50
2012,06,27,08,10,6.80
2012,06,27,08,11,6.30
2012,06,27,08,12,5.90
2012,06,27,08,13,6.10
2012,06,27,08,14,4.80
2012,06,27,08,15,4.80
2012,06,27,08,16,6.20
2012,06,27,08,17,5.10
2012,06,27,08,18,5.80
2012,06,27,08,19,4.50
2012,06,27,08,20,6.40
2012,06,27,08,21,5.90
2012,06,27,08,22,3.90
2012,06,27,08,23,2.20
2012,06,27,08,24,4.90
2012,06,27,08,25,4.70
2012,06,27,08,26,5.30
2012,06,27,08,27,5.60
2012,06,27,08,28,7.20
2012,06,27,08,29,6.00
2012,06,27,08,30,5.40
2012,06,27,08,31,5.60
2012,06,27,08,32,5.80
2012,06,27,08,33,4.30
2012,06,27,08,34,6.10
2012,06,27,08,35,7.60
2012,06,27,08,36,7.00
2012,06,27,08,37,7.40
2012,06,27,08,38,4.30
2012,06,27,08,39,2.80
2012,06,27,08,40,5.70
2012,06,27,08,41,4.10
2012,06,27,08,42,5.80
2012,06,27,08,43,4.70
2012,06,27,08,44,4.20
2012,06,27,08,45,6.90
2012,06,27,08,46,6.10
2012,06,27,08,47,4.20
2012,06,27,08,48,5.90
2012,06,27,08,49,5.80
2012,06,27,08,50,5.20
2012,06,27,08,51,6.80
2012,06,27,08,52,6.90
2012,06,27,08,53,7.90
2012,06,27,08,54,7.00
2012,06,27,08,55,5.30
2012,06,27,08,56,6.20
2012,06,27,08,57,5.30
2012,06,27,08,58,5.80
2012,06,27,08,59,7.30
2012,06,27,09,00,9.40
2012,06,27,09,01,8.60
2012,06,27,09,02,8.70
2012,06,27,09,03,5.60
2012,06,27,09,04,7.20
2012,06,27,09,05,10.30
2012,06,27,09,06,6.10
2012,06,27,09,07,8.20
2012,06,27,09,08,6.60
2012,06,27,09,09,6.80
2012,06,27,09,10,8.50
2012,06,27,09,11,8.30
2012,06,27,09,12,8.30
2012,06,27,09,13,7.40
2012,06,27,09,14,9.00
2012,06,27,09,15,6.50
2012,06,27,09,16,8.10
2012,06,27,09,17,8.10
2012,06,27,09,18,7.60
2012,06,27,09,19,8.60
2012,06,27,09,20,7.50
2012,06,27,09,21,8.90
2012,06,27,09,22,7.70
2012,06,27,09,23,5.10
2012,06,27,09,24,7.70
2012,06,27,09,25,7.10
2012,06,27,09,26,8.20
2012,06,27,09,27,6.60
2012,06,27,09,28,8.40
2012,06,27,09,29,6.90
2012,06,27,09,30,8.10
2012,06,27,09,31,6.40
2012,06,27,09,32,4.30
2012,06,27,09,33,4.40
2012,06,27,09,34,5.60
2012,06,27,09,35,3.70
2012,06,27,09,36,6.30
2012,06,27,09,37,9.20
2012,06,27,09,38,9.10
2012,06,27,09,39,6.30
2012,06,27,09,40,6.10
2012,06,27,09,41,6.80
2012,06,27,09,42,5.40
2012,06,27,09,43,11.30
2012,06,27,09,44,8.90
2012,06,27,09,45,8.70
2012,06,27,09,46,9.00
2012,06,27,09,47,8.00
2012,06,27,09,48,10.70
2012,06,27,09,49,11.10
2012,06,27,09,50,9.30
2012,06,27,09,51,7.70
2012,06,27,09,52,10.40
2012,06,27,09,53,10.50
2012,06,27,09,54,9.70
2012,06,27,09,55,12.40
2012,06,27,09,56,7.50
2012,06,27,09,57,9.70
2012,06,27,09,58,12.70
2012,06,27,09,59,9.00
2012,06,27,10,00,7.10
2012,06,27,10,01,10.30
2012,06,27,10,02,8.90
2012,06,27,10,03,10.00
2012,06,27,10,04,9.70
2012,06,27,10,05,7.10
2012,06,27,10,06,10.90
2012,06,27,10,07,9.00
2012,06,27,10,08,11.90
2012,06,27,10,09,9.10
2012,06,27,10,10,7.70
2012,06,27,10,11,7.40
2012,06,27,10,12,9.00
2012,06,27,10,13,9.30
2012,06,27,10,14,8.50
2012,06,27,10,15,10.70
2012,06,27,10,16,8.40
2012,06,27,10,17,6.80
2012,06,27,10,18,9.20
2012,06,27,10,19,8.70
2012,06,27,10,20,9.20
2012,06,27,10,21,8.10
2012,06,27,10,22,7.60
2012,06,27,10,23,9.40
2012,06,27,10,24,9.70
2012,06,27,10,25,9.30
2012,06,27,10,26,8.50
2012,06,27,10,27,7.50
2012,06,27,10,28,7.70
2012,06,27,10,29,9.10
2012,06,27,10,30,7.50
2012,06,27,10,31,8.60
2012,06,27,10,32,9.00
2012,06,27,10,33,7.60
2012,06,27,10,34,5.10
2012,06,27,10,35,6.90
2012,06,27,10,36,9.40
2012,06,27,10,37,10.10
2012,06,27,10,38,5.10
2012,06,27,10,39,11.70
2012,06,27,10,40,8.40
2012,06,27,10,41,12.90
2012,06,27,10,42,8.00
2012,06,27,10,43,10.60
2012,06,27,10,44,11.40
2012,06,27,10,45,10.00
2012,06,27,10,46,13.40
2012,06,27,10,47,12.20
2012,06,27,10,48,8.60
2012,06,27,10,49,11.30
2012,06,27,10,50,9.30
2012,06,27,10,51,10.80
2012,06,27,10,52,13.00
2012,06,27,10,53,13.60
2012,06,27,10,54,9.90
2012,06,27,10,55,10.50
2012,06,27,10,56,10.60
2012,06,27,10,57,9.30
2012,06,27,10,58,12.80
2012,06,27,10,59,9.20
2012,06,27,11,00,12.50
2012,06,27,11,01,9.80
2012,06,27,11,02,12.00
2012,06,27,11,03,10.30
2012,06,27,11,04,14.00
2012,06,27,11,05,13.40
2012,06,27,11,06,14.30
2012,06,27,11,07,13.40
2012,06,27,11,08,7.40
2012,06,27,11,09,8.70
2012,06,27,11,10,12.50
2012,06,27,11,11,16.00
2012,06,27,11,12,14.70
2012,06,27,11,13,12.70
2012,06,27,11,14,9.30
2012,06,27,11,15,13.00
2012,06,27,11,16,11.50
2012,06,27,11,17,12.30
2012,06,27,11,18,10.50
2012,06,27,11,19,10.30
2012,06,27,11,20,11.40
2012,06,27,11,21,7.90
2012,06,27,11,22,15.90
2012,06,27,11,23,11.70
2012,06,27,11,24,12.70
2012,06,27,11,25,9.30
2012,06,27,11,26,13.10
2012,06,27,11,27,11.50
2012,06,27,11,28,12.30
2012,06,27,11,29,11.60
2012,06,27,11,30,9.60
2012,06,27,11,31,10.00
2012,06,27,11,32,11.60
2012,06,27,11,33,15.40
2012,06,27,11,34,14.30
2012,06,27,11,35,12.30
2012,06,27,11,36,10.40
2012,06,27,11,37,11.10
2012,06,27,11,38,13.80
2012,06,27,11,39,9.60
2012,06,27,11,40,10.20
2012,06,27,11,41,11.10
2012,06,27,11,42,10.40
2012,06,27,11,43,15.50
2012,06,27,11,44,12.50
2012,06,27,11,45,11.60
2012,06,27,11,46,12.00
2012,06,27,11,47,10.60
2012,06,27,11,48,11.60
2012,06,27,11,49,12.00
2012,06,27,11,50,14.20
2012,06,27,11,51,14.70
2012,06,27,11,52,10.50
2012,06,27,11,53,10.30
2012,06,27,11,54,11.10
2012,06,27,11,55,11.60
2012,06,27,11,56,10.90
2012,06,27,11,57,10.00
2012,06,27,11,58,9.50
2012,06,27,11,59,12.60
2012,06,27,12,00,13.30
2012,06,27,12,01,11.50
2012,06,27,12,02,13.10
2012,06,27,12,03,12.40
2012,06,27,12,04,13.80
2012,06,27,12,05,10.50
2012,06,27,12,06,13.80
2012,06,27,12,07,12.40
2012,06,27,12,08,11.30
2012,06,27,12,09,14.00
2012,06,27,12,10,7.00
2012,06,27,12,11,12.20
2012,06,27,12,12,13.30
2012,06,27,12,13,13.20
2012,06,27,12,14,13.30
2012,06,27,12,15,11.70
2012,06,27,12,16,10.80
2012,06,27,12,17,11.00
2012,06,27,12,18,15.40
2012,06,27,12,19,11.40
2012,06,27,12,20,13.00
2012,06,27,12,21,14.60
2012,06,27,12,22,13.40
2012,06,27,12,23,13.80
2012,06,27,12,24,12.50
2012,06,27,12,25,11.80
2012,06,27,12,26,16.30
2012,06,27,12,27,16.50
2012,06,27,12,28,15.60
2012,06,27,12,29,12.90
2012,06,27,12,30,14.50
2012,06,27,12,31,15.70
2012,06,27,12,32,12.80
2012,06,27,12,33,14.70
2012,06,27,12,34,14.60
2012,06,27,12,35,9.80
2012,06,27,12,36,13.00
2012,06,27,12,37,15.30
2012,06,27,12,38,13.30
2012,06,27,12,39,17.20
2012,06,27,12,40,13.20
2012,06,27,12,41,12.10
2012,06,27,12,42,13.50
2012,06,27,12,43,10.50
2012,06,27,12,44,14.30
2012,06,27,12,45,14.30
2012,06,27,12,46,11.40
2012,06,27,12,47,12.60
2012,06,27,12,48,10.90
2012,06,27,12,49,13.30
2012,06,27,12,50,13.20
2012,06,27,12,51,13.90
2012,06,27,12,52,10.70
2012,06,27,12,53,14.20
2012,06,27,12,54,13.00
2012,06,27,12,55,14.60
2012,06,27,12,56,15.70
2012,06,27,12,57,15.60
2012,06,27,12,58,11.70
2012,06,27,12,59,8.90
2012,06,27,13,00,12.90
2012,06,27,13,01,13.80
2012,06,27,13,02,8.90
2012,06,27,13,03,7.10
2012,06,27,13,04,8.00
2012,06,27,13,05,7.80
2012,06,27,13,06,12.60
2012,06,27,13,07,10.40
2012,06,27,13,08,14.80
2012,06,27,13,09,11.80
2012,06,27,13,10,9.80
2012,06,27,13,11,9.90
2012,06,27,13,12,12.30
2012,06,27,13,13,9.60
2012,06,27,13,14,7.40
2012,06,27,13,15,10.70
2012,06,27,13,16,11.60
2012,06,27,13,17,8.30
2012,06,27,13,18,6.90
2012,06,27,13,19,7.60
2012,06,27,13,20,9.70
2012,06,27,13,21,7.90
2012,06,27,13,22,14.00
2012,06,27,13,23,8.60
2012,06,27,13,24,8.50
2012,06,27,13,25,7.70
2012,06,27,13,26,12.40
2012,06,27,13,27,11.80
2012,06,27,13,28,8.90
2012,06,27,13,29,11.50
2012,06,27,13,30,9.90
2012,06,27,13,31,12.90
2012,06,27,13,32,13.40
2012,06,27,13,33,10.70
2012,06,27,13,34,10.80
2012,06,27,13,35,6.40
2012,06,27,13,36,7.90
2012,06,27,13,37,11.10
2012,06,27,13,38,11.70
2012,06,27,13,39,10.90
2012,06,27,13,40,7.60
2012,06,27,13,41,7.50
2012,06,27,13,42,8.20
2012,06,27,13,43,7.70
2012,06,27,13,44,7.80
2012,06,27,13,45,12.60
2012,06,27,13,46,10.60
2012,06,27,13,47,10.10
2012,06,27,13,48,8.50
2012,06,27,13,49,8.00
2012,06,27,13,50,8.30
2012,06,27,13,51,7.70
2012,06,27,13,52,8.60
2012,06,27,13,53,10.30
2012,06,27,13,54,9.50
2012,06,27,13,55,8.10
2012,06,27,13,56,7.60
2012,06,27,13,57,6.00
2012,06,27,13,58,8.10
2012,06,27,13,59,8.00
2012,06,27,14,00,8.20
2012,06,27,14,01,10.50
2012,06,27,14,02,7.70
2012,06,27,14,03,7.90
2012,06,27,14,04,8.50
2012,06,27,14,05,6.90
2012,06,27,14,06,9.20
2012,06,27,14,07,10.80
2012,06,27,14,08,8.30
2012,06,27,14,09,8.80
2012,06,27,14,10,7.20
2012,06,27,14,11,4.90
2012,06,27,14,12,6.10
2012,06,27,14,13,6.40
2012,06,27,14,14,8.50
2012,06,27,14,15,9.50
2012,06,27,14,16,7.40
2012,06,27,14,17,7.00
2012,06,27,14,18,6.40
2012,06,27,14,19,7.10
2012,06,27,14,20,9.50
2012,06,27,14,21,8.50
2012,06,27,14,22,9.00
2012,06,27,14,23,5.90
2012,06,27,14,24,9.30
2012,06,27,14,25,7.20
2012,06,27,14,26,8.40
2012,06,27,14,27,5.90
2012,06,27,14,28,7.50
2012,06,27,14,29,8.50
2012,06,27,14,30,7.70
2012,06,27,14,31,6.30
2012,06,27,14,32,5.50
2012,06,27,14,33,5.20
2012,06,27,14,34,8.70
2012,06,27,14,35,9.90
2012,06,27,14,36,5.80
2012,06,27,14,37,4.90
2012,06,27,14,38,6.50
2012,06,27,14,39,7.30
2012,06,27,14,40,5.60
2012,06,27,14,41,7.70
2012,06,27,14,42,7.60
2012,06,27,14,43,8.30
2012,06,27,14,44,7.60
2012,06,27,14,45,6.80
2012,06,27,14,46,7.70
2012,06,27,14,47,6.10
2012,06,27,14,48,6.20
2012,06,27,14,49,7.20
2012,06,27,14,50,7.10
2012,06,27,14,51,4.40
2012,06,27,14,52,7.80
2012,06,27,14,53,8.00
2012,06,27,14,54,5.20
2012,06,27,14,55,5.70
2012,06,27,14,56,9.60
2012,06,27,14,57,10.60
2012,06,27,14,58,7.40
2012,06,27,14,59,8.30
2012,06,27,15,00,6.70
2012,06,27,15,01,7.00
2012,06,27,15,02,4.20
2012,06,27,15,03,6.20
2012,06,27,15,04,8.60
2012,06,27,15,05,8.70
2012,06,27,15,06,5.70
2012,06,27,15,07,3.20
2012,06,27,15,08,7.10
2012,06,27,15,09,5.00
2012,06,27,15,10,1.80
2012,06,27,15,11,6.80
2012,06,27,15,12,7.20
2012,06,27,15,13,5.50
2012,06,27,15,14,6.60
2012,06,27,15,15,7.10
2012,06,27,15,16,6.00
2012,06,27,15,17,7.90
2012,06,27,15,18,5.10
2012,06,27,15,19,5.40
2012,06,27,15,20,5.30
2012,06,27,15,21,6.40
2012,06,27,15,22,5.50
2012,06,27,15,23,6.10
2012,06,27,15,24,5.10
2012,06,27,15,25,5.20
2012,06,27,15,26,6.40
2012,06,27,15,27,7.60
2012,06,27,15,28,5.50
2012,06,27,15,29,3.50
2012,06,27,15,30,4.00
2012,06,27,15,31,3.20
2012,06,27,15,32,6.80
2012,06,27,15,33,7.10
2012,06,27,15,34,5.90
2012,06,27,15,35,5.60
2012,06,27,15,36,6.00
2012,06,27,15,37,5.10
2012,06,27,15,38,5.10
2012,06,27,15,39,4.00
2012,06,27,15,40,6.90
2012,06,27,15,41,5.50
2012,06,27,15,42,7.10
2012,06,27,15,43,6.20
2012,06,27,15,44,3.50
2012,06,27,15,45,6.00
2012,06,27,15,46,7.00
2012,06,27,15,47,7.10
2012,06,27,15,48,7.20
2012,06,27,15,49,6.80
2012,06,27,15,50,6.00
2012,06,27,15,51,5.80
2012,06,27,15,52,7.40
2012,06,27,15,53,6.40
2012,06,27,15,54,5.80
2012,06,27,15,55,4.80
2012,06,27,15,56,5.80
2012,06,27,15,57,4.70
2012,06,27,15,58,7.20
2012,06,27,15,59,7.30
2012,06,27,16,00,7.60
2012,06,27,16,01,5.60
2012,06,27,16,02,5.80
2012,06,27,16,03,6.40
2012,06,27,16,04,5.60
2012,06,27,16,05,4.40
2012,06,27,16,06,3.70
2012,06,27,16,07,5.20
2012,06,27,16,08,4.80
2012,06,27,16,09,3.70
2012,06,27,16,10,2.70
2012,06,27,16,11,4.50
2012,06,27,16,12,4.10
2012,06,27,16,13,5.50
2012,06,27,16,14,5.30
2012,06,27,16,15,6.00
2012,06,27,16,16,4.90
2012,06,27,16,17,5.00
2012,06,27,16,18,4.10
2012,06,27,16,19,5.50
2012,06,27,16,20,4.70
2012,06,27,16,21,5.30
2012,06,27,16,22,6.30
2012,06,27,16,23,4.90
2012,06,27,16,24,6.30
2012,06,27,16,25,4.30
2012,06,27,16,26,3.10
2012,06,27,16,27,4.10
2012,06,27,16,28,6.00
2012,06,27,16,29,5.10
2012,06,27,16,30,3.80
2012,06,27,16,31,0.80
2012,06,27,16,32,3.30
2012,06,27,16,33,3.40
2012,06,27,16,34,6.30
2012,06,27,16,35,4.70
2012,06,27,16,36,3.70
2012,06,27,16,37,7.00
2012,06,27,16,38,4.60
2012,06,27,16,39,1.40
2012,06,27,16,40,5.50
2012,06,27,16,41,5.30
2012,06,27,16,42,3.30
2012,06,27,16,43,2.70
2012,06,27,16,44,3.00
2012,06,27,16,45,1.50
2012,06,27,16,46,5.40
2012,06,27,16,47,5.10
2012,06,27,16,48,5.10
2012,06,27,16,49,5.30
2012,06,27,16,50,1.90
2012,06,27,16,51,3.60
2012,06,27,16,52,6.30
2012,06,27,16,53,5.10
2012,06,27,16,54,5.90
2012,06,27,16,55,3.50
2012,06,27,16,56,2.20
2012,06,27,16,57,4.30
2012,06,27,16,58,6.20
2012,06,27,16,59,5.20
2012,06,27,17,00,5.70
2012,06,27,17,01,7.20
2012,06,27,17,02,5.10
2012,06,27,17,03,3.90
2012,06,27,17,04,4.40
2012,06,27,17,05,6.40
2012,06,27,17,06,6.80
2012,06,27,17,07,7.30
2012,06,27,17,08,5.10
2012,06,27,17,09,2.50
2012,06,27,17,10,4.20
2012,06,27,17,11,3.00
2012,06,27,17,12,3.50
2012,06,27,17,13,3.00
2012,06,27,17,14,5.40
2012,06,27,17,15,3.90
2012,06,27,17,16,5.20
2012,06,27,17,17,5.70
2012,06,27,17,18,5.60
2012,06,27,17,19,5.20
2012,06,27,17,20,5.80
2012,06,27,17,21,6.60
2012,06,27,17,22,7.30
2012,06,27,17,23,6.10
2012,06,27,17,24,4.10
2012,06,27,17,25,6.80
2012,06,27,17,26,7.20
2012,06,27,17,27,5.80
2012,06,27,17,28,5.70
2012,06,27,17,29,5.10
2012,06,27,17,30,4.10
2012,06,27,17,31,5.30
2012,06,27,17,32,7.30
2012,06,27,17,33,7.30
2012,06,27,17,34,6.00
2012,06,27,17,35,6.70
2012,06,27,17,36,4.20
2012,06,27,17,37,6.50
2012,06,27,17,38,4.80
2012,06,27,17,39,4.70
2012,06,27,17,40,6.80
2012,06,27,17,41,6.00
2012,06,27,17,42,5.10
2012,06,27,17,43,5.60
2012,06,27,17,44,6.70
2012,06,27,17,45,5.30
2012,06,27,17,46,6.40
2012,06,27,17,47,6.10
2012,06,27,17,48,4.40
2012,06,27,17,49,3.00
2012,06,27,17,50,5.40
2012,06,27,17,51,2.00
2012,06,27,17,52,3.60
2012,06,27,17,53,2.60
2012,06,27,17,54,4.70
2012,06,27,17,55,5.10
2012,06,27,17,56,6.40
2012,06,27,17,57,4.30
2012,06,27,17,58,5.00
2012,06,27,17,59,4.20